7 * 24
多渠道服务支持
Hi!有什么问题可以问我哦~
STARLINK-1760是美国太空探索技术公司星链星座的一员,于2020年9月3日发射入轨。星链旨在构建全球卫星互联网,该卫星承担低轨通信任务,为全球偏远地区等提供互联网接入服务。截至2026年,已在轨运行超五年,支撑星链网络的通信覆盖与服务能力。
美国
(US)
| 数据来源 | 国际轨道数据 |
| 星历时间: | 2025-02-12T17:44:28+0800 轨道信息已过期415天 |
| 半长轴: | 6532.308km |
| 偏心率: | 0.000599 |
| 轨道倾角: | 53.029° |
| 近地点辐角 | 248.938° |
| 升交点赤经 | 271.013° |
| 平近点角 | 285.195° |
| 近地点: | 150.26km |
| 远地点: | 158.086km |
| 周期: | 87.571分钟 |
| 每日圈数: | 16.443823 |